TimeMDT,TemperatureF,Dew PointF,Humidity,Sea Level PressureIn,VisibilityMPH,Wind Direction,Wind SpeedMPH,Gust SpeedMPH,PrecipitationIn,Events,Conditions,WindDirDegrees,DateUTC
12:53 AM,53.1,19.0,26,29.88,10.0,SSE,3.5,-,N/A,,Clear,160,2013-05-09 06:53:00
1:53 AM,52.0,21.0,30,29.86,10.0,West,8.1,-,N/A,,Clear,280,2013-05-09 07:53:00
2:53 AM,54.0,21.9,29,29.86,10.0,West,4.6,-,N/A,,Clear,270,2013-05-09 08:53:00
3:53 AM,48.0,19.0,32,29.88,10.0,Calm,Calm,-,N/A,,Clear,0,2013-05-09 09:53:00
4:53 AM,48.9,21.0,33,29.87,10.0,WSW,4.6,-,N/A,,Clear,240,2013-05-09 10:53:00
5:53 AM,46.9,19.0,33,29.88,10.0,Calm,Calm,-,N/A,,Clear,0,2013-05-09 11:53:00
6:53 AM,46.9,19.9,34,29.91,10.0,SSW,3.5,-,N/A,,Clear,210,2013-05-09 12:53:00
7:53 AM,53.1,21.9,30,29.91,10.0,SW,3.5,-,N/A,,Clear,230,2013-05-09 13:53:00
8:53 AM,60.1,24.1,25,29.90,10.0,WSW,3.5,-,N/A,,Clear,250,2013-05-09 14:53:00
9:53 AM,66.9,26.1,21,29.89,10.0,SW,4.6,-,N/A,,Clear,220,2013-05-09 15:53:00
10:53 AM,70.0,30.0,23,29.89,10.0,Variable,4.6,-,N/A,,Clear,0,2013-05-09 16:53:00
11:53 AM,72.0,28.0,20,29.89,10.0,Variable,5.8,-,N/A,,Partly Cloudy,0,2013-05-09 17:53:00
12:53 PM,75.0,25.0,16,29.87,10.0,SW,9.2,18.4,N/A,,Clear,230,2013-05-09 18:53:00
1:53 PM,75.9,23.0,14,29.86,10.0,WSW,13.8,21.9,N/A,,Clear,240,2013-05-09 19:53:00
2:53 PM,78.1,24.1,14,29.82,10.0,SW,13.8,19.6,N/A,,Partly Cloudy,230,2013-05-09 20:53:00
3:53 PM,79.0,23.0,13,29.81,10.0,WNW,13.8,21.9,N/A,,Clear,290,2013-05-09 21:53:00
4:22 PM,78.8,23.0,13,29.96,10.0,WSW,12.7,19.6,N/A,,Clear,240,2013-05-09 22:22:00
4:53 PM,78.1,21.9,12,29.79,10.0,West,21.9,26.5,N/A,,Clear,270,2013-05-09 22:53:00
6:53 PM,73.9,21.9,14,29.81,10.0,West,13.8,-,N/A,,Partly Cloudy,270,2013-05-10 00:53:00
8:53 PM,70.0,25.0,18,29.81,10.0,WNW,9.2,-,N/A,,Clear,300,2013-05-10 02:53:00
9:53 PM,69.1,25.0,19,29.83,10.0,WNW,11.5,-,N/A,,Clear,290,2013-05-10 03:53:00
11:53 PM,64.9,27.0,24,29.83,10.0,North,4.6,-,N/A,,Clear,360,2013-05-10 05:53:00